Location: Heilbronn
(49.1548°N, 9.2780°E)
Time: 14:00:33
(UTC+02:00)

ISS - Pass Details

Date: 28 March 2017
Orbit: 400 x 409 km, 51.6° (Epoch: 23 April)

Event Time Altitude Azimuth Distance (km) Brightness Sun altitude
Rises 20:52:47 0° 210° (SSW) 2,305 0.2 -11.1°
Reaches altitude 10° 20:55:08 10° 194° (SSW) 1,452 -1.1 -11.5°
Maximum altitude 20:57:42 22° 142° (SE) 953 -2.4 -11.9°
Enters shadow 20:58:22 20° 123° (ESE) 995 -2.5 -12.0°
